Regional Weather Roundup
Issued by NWS

Home | Current Version | Previous Version | Graphics & Text | Print | Product List | Glossary On
Versions: 1 2 3 4 5 6 7 8 9 10 11 12 13 14 15 16 17 18 19 20 21 22 23 24 25 26 27 28 29 30 31 32 33 34 35 36 37 38 39 40 41 42 43 44 45 46 47 48 49 50
000
ASUS43 KOAX 180802
RWRNE

WEATHER ROUNDUP FOR NEBRASKA
NATIONAL WEATHER SERVICE OMAHA NE
300 AM CDT WED OCT 18 2017

NOTES: SATELLITE DATA IS BEING USED TO AUGMENT CLOUD COVER ABOVE
       12000 FEET.
       "FAIR" INDICATES FEW OR NO CLOUDS BELOW 12,000 FEET WITH NO
       SIGNIFICANT WEATHER AND/OR OBSTRUCTIONS TO VISIBILITY.


NEZ001>004-019>022-054>056-180900-
NEBRASKA PANHANDLE

CITY           SKY/WX    TMP DP  RH WIND       PRES   REMARKS
SCOTTSBLUFF    CLOUDY    40  28  62 NE5       29.94S
ALLIANCE       CLOUDY    41  24  51 CALM      29.91S
CHADRON        CLOUDY    58  18  21 SW13      29.83S
GORDON         FAIR      51  24  35 W5        29.85S
KIMBALL        CLOUDY    45  25  46 W8        30.00F
SIDNEY         CLOUDY    44  24  45 W10       29.98F
$$

NEZ057>060-069>072-079>082-180900-
SOUTHWEST NEBRASKA

CITY           SKY/WX    TMP DP  RH WIND       PRES   REMARKS
NORTH PLATTE   CLOUDY    45  35  68 NW7       29.91F
IMPERIAL       CLOUDY    44  28  53 W7        29.95F
LEXINGTON      CLEAR     58  39  48 SW12      29.92S
MCCOOK         CLEAR     49  38  65 SW6       29.94F
OGALLALA       CLOUDY    39  31  71 W5        29.94S
$$

NEZ005>010-023>029-035>040-094-180900-
NORTH CENTRAL NEBRASKA

CITY           SKY/WX    TMP DP  RH WIND       PRES   REMARKS
VALENTINE      CLOUDY    45  30  55 W7        29.81F
AINSWORTH      CLOUDY    55  33  44 SW13      29.82F
BROKEN BOW     CLOUDY    50  36  58 CALM      29.89F
O`NEILL        CLEAR     51  40  66 SW3       29.84F
ORD            CLEAR     45  36  70 CALM      29.87F
THEDFORD       PTCLDY    58  29  33 SW12      29.87F
$$

NEZ041-046>049-061>064-073>077-083>087-180900-
SOUTH CENTRAL NEBRASKA

CITY           SKY/WX    TMP DP  RH WIND       PRES   REMARKS
GRAND ISLAND   CLEAR     55  45  68 S13       29.92S
AURORA         CLEAR     51  44  77 S8        29.92F
HASTINGS       CLEAR     52  42  69 S8        29.94S
HEBRON         CLEAR     54  46  72 S3        29.97R
HOLDREGE       CLEAR     51  41  69 SW8       29.93F
KEARNEY        CLEAR     52  41  66 SW12      29.92F
YORK           CLEAR     50  46  87 S9        29.94F
$$

NEZ011>018-030>034-042>045-180900-
NORTHEAST NEBRASKA

CITY           SKY/WX    TMP DP  RH WIND       PRES   REMARKS
NORFOLK        CLEAR     51  44  77 CALM      29.88F
ALBION         CLEAR     50  43  79 SE5       29.89F
BLAIR          CLEAR     55  47  75 S12       29.93F
COLUMBUS       CLEAR     54  45  71 S10       29.92F
FREMONT        CLEAR     55  46  70 S8        29.93F
TEKAMAH        CLEAR     47  44  90 SE7       29.92F
WAYNE          CLEAR     47  45  91 S6        29.88F
$$

NEZ050>053-065>068-078-088>093-180900-
SOUTHEAST NEBRASKA

CITY           SKY/WX    TMP DP  RH WIND       PRES   REMARKS
LINCOLN        CLEAR     52  46  80 S9        29.96F
OMAHA EPPLEY   CLEAR     51  45  79 SE12      29.96S
BEATRICE       CLEAR     55  46  73 S10       29.98F
FALLS CITY     CLEAR     53  46  77 S12       30.01S
NEBRASKA CITY  CLEAR     52  48  86 S9        29.99S
PLATTSMOUTH    CLEAR     52  47  82 S10       29.96F
$$

NEZ044-045-051>053-067-180900-
OMAHA AREA

CITY           SKY/WX    TMP DP  RH WIND       PRES   REMARKS
OMAHA EPPLEY   CLEAR     51  45  79 SE12      29.96S
BLAIR          CLEAR     55  47  75 S12       29.93F
FREMONT        CLEAR     55  46  70 S8        29.93F
MILLARD        CLEAR     53  47  82 SE5       29.96S
OFFUTT AFB     CLEAR     42  41  95 SE3       29.96S
PLATTSMOUTH    CLEAR     52  47  82 S10       29.96F
WAHOO          FAIR      47  44  89 SE5       29.94F
$$



USA.gov is the U.S. government's official web portal to all federal, state and local government web resources and services.